TimeEST,TemperatureF,Dew PointF,Humidity,Sea Level PressureIn,VisibilityMPH,Wind Direction,Wind SpeedMPH,Gust SpeedMPH,PrecipitationIn,Events,Conditions,WindDirDegrees,DateUTC
12:53 AM,24.1,19.0,81,30.40,10.0,Calm,Calm,-,N/A,,Clear,0,2013-12-11 05:53:00
1:53 AM,23.0,18.0,81,30.41,10.0,Calm,Calm,-,N/A,,Clear,0,2013-12-11 06:53:00
2:53 AM,23.0,18.0,81,30.43,10.0,SSE,3.5,-,N/A,,Clear,160,2013-12-11 07:53:00
3:53 AM,21.9,17.1,82,30.44,10.0,Calm,Calm,-,N/A,,Clear,0,2013-12-11 08:53:00
4:53 AM,21.0,17.1,85,30.43,9.0,Calm,Calm,-,N/A,,Clear,0,2013-12-11 09:53:00
5:53 AM,19.9,16.0,85,30.43,9.0,Calm,Calm,-,N/A,,Clear,0,2013-12-11 10:53:00
6:53 AM,19.9,16.0,85,30.43,8.0,South,3.5,-,N/A,,Clear,180,2013-12-11 11:53:00
7:53 AM,19.9,16.0,85,30.43,8.0,Calm,Calm,-,N/A,,Clear,0,2013-12-11 12:53:00
8:53 AM,24.1,19.9,84,30.44,10.0,Calm,Calm,-,N/A,,Clear,0,2013-12-11 13:53:00
9:53 AM,28.9,23.0,78,30.44,10.0,South,3.5,-,N/A,,Clear,180,2013-12-11 14:53:00
10:53 AM,34.0,24.1,67,30.43,10.0,SW,6.9,-,N/A,,Clear,220,2013-12-11 15:53:00
11:53 AM,37.9,23.0,55,30.41,10.0,SW,8.1,-,N/A,,Clear,220,2013-12-11 16:53:00
12:53 PM,41.0,21.9,47,30.38,10.0,SW,6.9,-,N/A,,Clear,220,2013-12-11 17:53:00
1:53 PM,43.0,21.0,42,30.35,10.0,WSW,11.5,-,N/A,,Clear,240,2013-12-11 18:53:00
2:53 PM,46.0,19.0,34,30.34,10.0,WSW,12.7,-,N/A,,Clear,250,2013-12-11 19:53:00
3:53 PM,45.0,19.9,37,30.34,10.0,WNW,15.0,20.7,N/A,,Clear,290,2013-12-11 20:53:00
4:53 PM,41.0,19.0,41,30.36,10.0,West,11.5,-,N/A,,Clear,280,2013-12-11 21:53:00
5:53 PM,37.9,19.9,48,30.38,10.0,West,5.8,-,N/A,,Clear,270,2013-12-11 22:53:00
6:53 PM,35.1,19.9,54,30.41,10.0,WNW,3.5,-,N/A,,Clear,290,2013-12-11 23:53:00
7:53 PM,34.0,19.9,56,30.42,10.0,West,5.8,-,N/A,,Clear,280,2013-12-12 00:53:00
8:53 PM,32.0,21.0,64,30.43,10.0,West,5.8,-,N/A,,Clear,280,2013-12-12 01:53:00
9:53 PM,32.0,21.9,66,30.44,10.0,NW,5.8,-,N/A,,Clear,310,2013-12-12 02:53:00
10:53 PM,30.0,21.0,69,30.46,10.0,NNW,12.7,-,N/A,,Partly Cloudy,340,2013-12-12 03:53:00
11:06 PM,30.0,21.9,72,30.44,10.0,NNW,10.4,-,N/A,,Mostly Cloudy,330,2013-12-12 04:06:00
11:53 PM,30.0,21.0,69,30.47,10.0,NNW,9.2,-,N/A,,Overcast,330,2013-12-12 04:53:00